[[{"header":{"parameterUnit":"m.s-1","parameterCategory":1,"la1":30.2991,"la2":30.254,"lo1":-89.0895,"lo2":-89.0444,"dy":0.0017,"dx":0.0017,"nx":28,"ny":28,"refTime":"2023-10-02T21:00:00:Z","depth":0,"parameterNumber":2,"parameterNumberName":"U-component_of_WINDS"},"data":[0,0,0,0,0,0,0,0,0,0,0,0,0,0,0,0,0,0,0,0,0,0,0,0,0,0,0,0,0,0,0,0,0,0,0,0,0,0,0,0,0,0,0,0,0,0,0,0,0,0,0,0,0,0,0,0,0,0,-4.2465,-4.2464,0,-4.2436,-4.2435,-4.2435,-4.2231,-4.2226,-4.2221,-4.2216,-4.2189,-4.2193,-4.2197,0,0,0,0,0,0,0,0,0,0,0,0,0,-4.2345,-4.2349,-4.2465,-4.2464,-4.2464,-4.2436,-4.2435,-4.2435,-4.2232,-4.2225,-4.2219,-4.2214,-4.2188,-4.2193,-4.2197,0,0,0,0,0,0,0,0,0,0,0,0,0,-4.2365,-4.235,-4.2465,-4.2359,-4.2349,-4.2436,-4.2435,-4.2435,-4.2233,-4.2225,-4.2218,-4.2211,-4.2186,-4.2192,-4.2198,-4.2385,0,0,-4.2216,-4.2219,0,0,0,0,0,0,0,0,-4.2364,-4.237,-4.2375,-4.2366,-4.2356,-4.2329,-4.2383,-4.2418,-4.2235,-4.2277,-4.2216,-4.2207,-4.2242,-4.2243,-4.2254,-4.2384,-4.2383,-4.2217,-4.222,-4.2223,-4.2225,0,0,0,0,0,0,0,-4.2363,-4.237,-4.2453,-4.2375,-4.2363,-4.2313,-4.2308,-4.2389,-4.2302,-4.2273,-4.2258,-4.2257,-4.2235,-4.2249,-4.2252,-4.2382,-4.2217,-4.2222,-4.2226,-4.2228,-4.2663,-4.267,0,0,0,0,0,0,-4.2376,-4.237,-4.2454,-4.2452,-4.2341,-4.2322,-4.2316,-4.2345,-4.2301,-4.2287,-4.2264,-4.2248,-4.2242,-4.2245,-4.225,-4.2465,-4.2223,-4.2228,-4.2232,-4.2655,-4.2665,-4.2673,0,0,0,0,0,0,-4.2375,-4.2386,-4.2455,-4.2407,-4.2412,-4.2332,-4.2367,-4.2349,-4.2362,-4.2294,-4.2277,-4.2293,-4.2237,-4.2242,-4.2353,-4.2461,-4.2231,-4.2237,-4.2646,-4.2658,-4.2669,-4.2898,0,0,0,0,0,0,-4.2372,-4.2386,-4.2456,-4.241,-4.2416,-4.2558,-4.2373,-4.2353,-4.2372,-4.2351,-4.2317,-4.2304,-4.2231,-4.2345,-4.2359,-4.2465,-4.2241,-4.2635,-4.2651,-4.2665,-4.288,-4.2916,-4.2947,0,0,0,0,0,-4.2368,-4.2523,-4.2461,-4.2472,-4.2501,-4.2565,-4.2568,-4.248,-4.2382,-4.2451,-4.2408,-4.2305,-4.2448,-4.2358,-4.2372,-4.2482,-4.2628,-4.2647,-4.2664,-4.2865,-4.2909,-4.2946,0,0,0,0,0,0,-4.2585,-4.2515,-4.2445,-4.2589,-4.2585,-4.253,-4.2615,-4.2529,-4.2553,-4.2532,-4.2423,-4.2417,-4.2544,-4.2524,-4.2425,-4.266,-4.252,-4.2542,-4.2669,-4.271,-4.2743,-4.2744,-4.2246,0,0,0,0,0,-4.2649,-4.2706,-4.2642,-4.2775,-4.2776,-4.2697,-4.2721,-4.2654,-4.2645,-4.2642,-4.2606,-4.2602,-4.2645,-4.2676,-4.2713,-4.2877,-4.2866,-4.2959,-4.2993,-4.302,-4.304,-4.3125,-4.3165,-4.2732,-4.2732,-4.2732,0,0,-4.2783,-4.2751,-4.2794,-4.2818,-4.2806,-4.2868,-4.2697,-4.277,-4.2814,-4.2653,-4.2755,-4.2729,-4.2717,-4.2855,-4.2914,-4.2842,-4.3157,-4.3043,-4.3066,-4.307,-4.3147,-4.3188,-4.3225,-4.2745,-4.2742,-4.274,0,0,-4.3057,-4.304,-4.3148,-4.314,-4.3124,-4.307,-4.3097,-4.3055,-4.3031,-4.3132,-4.3012,-4.3064,-4.3142,-4.3138,-4.3146,-4.342,-4.3326,-4.3435,-4.3609,-4.3692,-4.3726,-4.3756,-4.3853,-4.3889,-4.3455,-4.3455,-4.3456,0,-4.3226,-4.3313,-4.3215,-4.3295,-4.3309,-4.3165,-4.3274,-4.3271,-4.3269,-4.3282,-4.3202,-4.3295,-4.3277,-4.3412,-4.3478,-4.349,-4.3517,-4.3438,-4.3729,-4.3758,-4.3784,-4.3876,-4.3912,-4.3468,-4.3467,-4.3466,-4.3464,0,-4.352,-4.3583,-4.3673,-4.3672,-4.3696,-4.3791,-4.3708,-4.3744,-4.3675,-4.363,-4.3734,-4.3707,-4.3735,-4.3762,-4.3696,-4.3888,-4.3844,-4.3749,-4.3605,-4.3841,-4.3924,-4.3958,-4.3487,-4.3483,-4.3479,-4.3475,0,0,-4.393,-4.3874,-4.3909,-4.3906,-4.3878,-4.3925,-4.4014,-4.4039,-4.4072,-4.4076,-4.4147,-4.4216,-4.4127,-4.4137,-4.4069,-4.4143,-4.436,-4.4037,-4.4035,-4.4098,-4.4569,-4.4641,-4.4683,-4.4298,-4.4304,-4.4309,-4.457,0,-4.4193,-4.4339,-4.4253,-4.4412,-4.4469,-4.4333,-4.441,-4.4402,-4.4362,-4.4405,-4.4361,-4.4411,-4.4291,-4.4296,-4.4362,-4.432,-4.4453,-4.43,-4.4364,-4.4367,-4.437,-4.4726,-4.4802,-4.5049,-4.4602,-4.4608,-4.4612,0,-4.4519,-4.4535,-4.47,-4.466,-4.468,-4.4751,-4.4767,-4.481,-4.4798,-4.4764,-4.4775,-4.4689,-4.4773,-4.4633,-4.4747,-4.4645,-4.4666,-4.4649,-4.4657,-4.4658,-4.4503,-4.4737,-4.5126,-4.5163,-4.4662,-4.4658,-4.4655,0,-4.48,-4.4863,-4.4969,-4.4972,-4.4928,-4.4981,-4.4966,-4.4946,-4.4967,-4.4982,-4.4995,-4.5021,-4.5035,-4.5057,-4.498,-4.4885,-4.5106,-4.4959,-4.508,-4.5082,-4.5131,-4.5129,-4.5528,-4.5148,-4.5147,-4.5146,-4.5146,0,-4.5102,-4.5208,-4.5095,-4.516,-4.5275,-4.5176,-4.5292,-4.5262,-4.5246,-4.5303,-4.5189,-4.5245,-4.5141,-4.5187,-4.5128,-4.5232,-4.5239,-4.5214,-4.5197,-4.5224,-4.5227,-4.5236,-4.5216,-4.5156,-4.5154,-4.5152,-4.515,0,-4.5435,-4.5364,-4.547,-4.542,-4.541,-4.5497,-4.5454,-4.5512,-4.5465,-4.5539,-4.5551,-4.5478,-4.5526,-4.5452,-4.5493,-4.5453,-4.5596,-4.5553,-4.56,-4.5587,-4.5712,-4.5701,-4.613,-4.618,-4.5769,-4.5773,-4.5776,0,-4.5632,-4.571,-4.5668,-4.5697,-4.5688,-4.5738,-4.5758,-4.5664,-4.569,-4.5682,-4.5743,-4.5781,-4.5807,-4.5892,-4.5842,-4.5873,-4.5829,-4.5977,-4.5833,-4.5858,-4.583,-4.5826,-4.5833,-4.6007,-4.6012,-4.6016,-4.6019,0,-4.5988,-4.5949,-4.5982,-4.6004,-4.6031,-4.6044,-4.6049,-4.608,-4.5981,-4.6017,-4.6064,-4.6085,-4.6125,-4.6166,-4.6184,-4.6168,-4.6079,-4.6065,-4.6094,-4.6122,-4.6146,-4.6134,-4.568,-4.6056,-4.6052,-4.6049,-4.6047,-4.6046,-4.6258,-4.632,-4.63,-4.6341,-4.6334,-4.6341,-4.6394,-4.6353,-4.639,-4.6415,-4.6358,-4.642,-4.6406,-4.642,-4.6415,-4.6463,-4.6398,-4.6441,-4.6451,-4.6463,-4.6482,-4.614,-4.6466,-4.6465,-4.6464,-4.6463,-4.6462,0,-4.6607,-4.6587,-4.6626,-4.6635,-4.6668,-4.6579,-4.6579,-4.6613,-4.6668,-4.6662,-4.669,-4.6745,-4.6783,-4.6737,-4.6767,-4.6814,-4.6774,-4.6825,-4.682,-4.6818,-4.6539,-4.651,-4.6858,-4.6858,-4.6858,-4.6857,-4.6857,-4.6857,-4.6792,-4.6893,-4.6852,-4.6948,-4.6927,-4.6986,-4.6994,-4.7,-4.6994,-4.706,-4.7091,-4.706,-4.7039,-4.7066,-4.7098,-4.7083,-4.7099,-4.7166,-4.7137,-4.6877,-4.6838,-4.6801,-4.6773,-4.717,-4.7171,-4.7411,-4.7414,-4.7416]},{"header":{"parameterUnit":"m.s-1","parameterCategory":1,"la1":30.2991,"la2":30.254,"lo1":-89.0895,"lo2":-89.0444,"dy":0.0017,"dx":0.0017,"nx":28,"ny":28,"refTime":"2023-10-02T21:00:00:Z","depth":0,"parameterNumber":3,"parameterNumberName":"V-component_of_WINDS"},"data":[0,0,0,0,0,0,0,0,0,0,0,0,0,0,0,0,0,0,0,0,0,0,0,0,0,0,0,0,0,0,0,0,0,0,0,0,0,0,0,0,0,0,0,0,0,0,0,0,0,0,0,0,0,0,0,0,0,0,-0.5392,-0.5394,0,-0.5535,-0.5536,-0.5538,-0.5664,-0.5665,-0.5666,-0.5668,-0.581,-0.5812,-0.5815,0,0,0,0,0,0,0,0,0,0,0,0,0,-0.5225,-0.5228,-0.5392,-0.5394,-0.5396,-0.5534,-0.5536,-0.5538,-0.5663,-0.5665,-0.5667,-0.5669,-0.5809,-0.5812,-0.5815,0,0,0,0,0,0,0,0,0,0,0,0,0,-0.5325,-0.5229,-0.5392,-0.5475,-0.5484,-0.5534,-0.5536,-0.5539,-0.5663,-0.5665,-0.5667,-0.5669,-0.5808,-0.5812,-0.5815,-0.5794,0,0,-0.5826,-0.5828,0,0,0,0,0,0,0,0,-0.532,-0.5331,-0.5461,-0.5469,-0.5479,-0.5584,-0.553,-0.5624,-0.5662,-0.5595,-0.5668,-0.567,-0.5733,-0.5743,-0.5764,-0.58,-0.5806,-0.5827,-0.5829,-0.5831,-0.5832,0,0,0,0,0,0,0,-0.5313,-0.5326,-0.5448,-0.5463,-0.5474,-0.5504,-0.5521,-0.5548,-0.5649,-0.5601,-0.561,-0.5626,-0.5738,-0.5761,-0.5769,-0.5809,-0.5827,-0.583,-0.5832,-0.5834,-0.5833,-0.583,0,0,0,0,0,0,-0.5293,-0.5319,-0.5444,-0.5453,-0.5403,-0.5505,-0.5524,-0.5548,-0.565,-0.5667,-0.5624,-0.5631,-0.5753,-0.5764,-0.5774,-0.5755,-0.5831,-0.5834,-0.5836,-0.5835,-0.5832,-0.583,0,0,0,0,0,0,-0.5289,-0.5303,-0.5438,-0.5389,-0.5408,-0.5506,-0.5532,-0.5549,-0.5572,-0.5667,-0.5685,-0.5628,-0.5756,-0.5769,-0.5788,-0.5761,-0.5836,-0.5839,-0.5837,-0.5834,-0.5831,-0.5715,0,0,0,0,0,0,-0.5284,-0.5301,-0.5294,-0.5388,-0.541,-0.545,-0.553,-0.5551,-0.5579,-0.5589,-0.5676,-0.5692,-0.5758,-0.5782,-0.5791,-0.5767,-0.5842,-0.584,-0.5836,-0.5832,-0.5721,-0.5708,-0.5696,0,0,0,0,0,-0.5278,-0.5256,-0.5294,-0.5308,-0.5404,-0.5448,-0.5461,-0.5539,-0.5576,-0.5569,-0.563,-0.569,-0.5763,-0.5783,-0.5795,-0.5771,-0.5842,-0.5837,-0.5832,-0.5727,-0.5711,-0.5697,0,0,0,0,0,0,-0.5156,-0.5269,-0.5313,-0.5321,-0.5374,-0.5469,-0.5464,-0.5519,-0.5562,-0.557,-0.5663,-0.5682,-0.569,-0.5733,-0.5753,-0.5755,-0.581,-0.5807,-0.5726,-0.5712,-0.5699,-0.5688,-0.5845,0,0,0,0,0,-0.513,-0.5157,-0.5255,-0.5252,-0.5277,-0.5365,-0.5387,-0.5442,-0.5501,-0.5524,-0.5586,-0.564,-0.5675,-0.5696,-0.5734,-0.5729,-0.5749,-0.5719,-0.5706,-0.5695,-0.5691,-0.5691,-0.5678,-0.5813,-0.5813,-0.5814,0,0,-0.5076,-0.5142,-0.5153,-0.5229,-0.5277,-0.5302,-0.5383,-0.5407,-0.5425,-0.5527,-0.5549,-0.5596,-0.5662,-0.5668,-0.5674,-0.5705,-0.5659,-0.5689,-0.568,-0.5682,-0.5684,-0.5671,-0.566,-0.581,-0.5811,-0.5811,0,0,-0.4992,-0.5045,-0.5048,-0.5094,-0.5166,-0.5225,-0.5226,-0.5313,-0.5349,-0.5372,-0.5449,-0.5472,-0.5531,-0.5575,-0.5604,-0.5535,-0.5591,-0.5545,-0.5479,-0.5477,-0.5467,-0.5458,-0.5431,-0.5421,-0.5541,-0.5541,-0.5541,0,-0.4916,-0.4958,-0.5042,-0.5061,-0.5091,-0.5186,-0.5189,-0.5229,-0.5309,-0.5327,-0.536,-0.5436,-0.5487,-0.5504,-0.5487,-0.5509,-0.5511,-0.5535,-0.5462,-0.5453,-0.5446,-0.5422,-0.5412,-0.5535,-0.5535,-0.5536,-0.5537,0,-0.486,-0.4887,-0.4881,-0.4957,-0.4987,-0.4997,-0.5082,-0.5102,-0.5154,-0.5209,-0.5231,-0.5296,-0.5348,-0.5357,-0.5408,-0.5381,-0.5397,-0.5444,-0.5502,-0.5426,-0.5405,-0.5396,-0.5526,-0.5528,-0.553,-0.5531,0,0,-0.4701,-0.4824,-0.482,-0.4855,-0.4941,-0.4963,-0.4978,-0.5029,-0.5044,-0.5096,-0.5109,-0.5157,-0.5201,-0.5234,-0.5291,-0.529,-0.5229,-0.5338,-0.5341,-0.5314,-0.5202,-0.5164,-0.5152,-0.5268,-0.5266,-0.5265,-0.5196,0,-0.4629,-0.4662,-0.4738,-0.4746,-0.4771,-0.4861,-0.4874,-0.4927,-0.4979,-0.5007,-0.5064,-0.5096,-0.5153,-0.5174,-0.5176,-0.5236,-0.5208,-0.5242,-0.5279,-0.5279,-0.5258,-0.5142,-0.5103,-0.5034,-0.5188,-0.5187,-0.5186,0,-0.455,-0.4596,-0.4607,-0.4691,-0.4704,-0.4714,-0.4767,-0.4794,-0.4856,-0.4893,-0.4931,-0.4994,-0.5012,-0.5066,-0.5092,-0.5114,-0.5133,-0.5165,-0.5164,-0.5169,-0.5227,-0.5142,-0.5014,-0.5003,-0.5174,-0.5175,-0.5176,0,-0.4431,-0.4497,-0.4511,-0.4538,-0.4637,-0.4642,-0.4683,-0.4747,-0.4773,-0.4819,-0.4837,-0.4884,-0.4909,-0.4944,-0.5017,-0.505,-0.5034,-0.5095,-0.5064,-0.5062,-0.5056,-0.5055,-0.4927,-0.5071,-0.5071,-0.5071,-0.5071,0,-0.4342,-0.4344,-0.4459,-0.4467,-0.4472,-0.456,-0.4562,-0.4612,-0.4668,-0.4687,-0.4768,-0.4783,-0.488,-0.4907,-0.4964,-0.4976,-0.4987,-0.5017,-0.5032,-0.5009,-0.5005,-0.5022,-0.5028,-0.5068,-0.5069,-0.5069,-0.507,0,-0.4209,-0.4287,-0.4308,-0.44,-0.4423,-0.4422,-0.4501,-0.4512,-0.4569,-0.4591,-0.4602,-0.469,-0.4725,-0.4803,-0.4859,-0.4898,-0.4894,-0.4922,-0.4873,-0.4882,-0.4847,-0.4849,-0.4725,-0.4712,-0.4864,-0.4863,-0.4862,0,-0.4146,-0.415,-0.4243,-0.4262,-0.43,-0.4329,-0.4356,-0.4443,-0.4467,-0.4538,-0.4539,-0.4581,-0.4619,-0.4671,-0.474,-0.4783,-0.4811,-0.4765,-0.4818,-0.4794,-0.4809,-0.4807,-0.4807,-0.4752,-0.475,-0.4749,-0.4747,0,-0.4026,-0.4064,-0.41,-0.415,-0.418,-0.4223,-0.427,-0.428,-0.4378,-0.4401,-0.4438,-0.4468,-0.4525,-0.4565,-0.4618,-0.466,-0.4718,-0.473,-0.4725,-0.4701,-0.4671,-0.4685,-0.4839,-0.4732,-0.4734,-0.4735,-0.4736,-0.4736,-0.3925,-0.3933,-0.3999,-0.4036,-0.4081,-0.4123,-0.4138,-0.4196,-0.423,-0.4284,-0.4333,-0.4365,-0.4426,-0.4504,-0.4541,-0.4567,-0.4597,-0.459,-0.4588,-0.4584,-0.4573,-0.4669,-0.4577,-0.4578,-0.4578,-0.4579,-0.4579,0,-0.3808,-0.3855,-0.3889,-0.3952,-0.3981,-0.4036,-0.4091,-0.4111,-0.4139,-0.4192,-0.4227,-0.427,-0.4309,-0.438,-0.4425,-0.4432,-0.446,-0.444,-0.444,-0.4448,-0.4545,-0.4544,-0.4417,-0.4417,-0.4417,-0.4417,-0.4417,-0.4417,-0.375,-0.3764,-0.381,-0.3847,-0.3895,-0.3928,-0.3954,-0.3992,-0.4035,-0.4079,-0.4112,-0.4159,-0.4219,-0.4269,-0.4306,-0.4326,-0.4338,-0.4309,-0.4338,-0.4426,-0.4442,-0.4456,-0.4456,-0.4312,-0.4312,-0.4239,-0.4238,-0.4237]}]]